Location: Azul
(36.7830°S, 59.8500°W)
Time: 08:09:05
(UTC-03:00)

DOVE 4 - Pass Details

Date: 23 October 2021
Orbit: 588 x 799 km, 97.8° (Epoch: 07 December)

Event Time Altitude Azimuth Distance (km) Brightness Sun altitude
Exits shadow 00:33:43 18° 188° (S) 1,902 ? -41.7°
Drops below altitude 10° 00:34:59 10° 189° (S) 2,396 ? -41.7°
Sets 00:37:23 0° 190° (S) 3,341 ? -41.7°
